Погода в Отрадинском

Россия / Орловская область     53°09′28″N   36°21′27″E
темп.,
°C
ветер,
м/с
пор.,
м/с
влажн.,
%
обл.,
%
осадки,
мм/ч
давл.,
гПа
погр.,
м
27 сентября, пн
пн2700:00+7ссз61391100 0.0 1015693
03:00+7ссз7129397 0.1 1017552
06:00+8ссз5119399 0.1 1018532
09:00+9с599051 0.3 1019649
12:00+10с687918 0.4 1021749
15:00+12ссв687033 1.0 10211143
18:00+9с6108699 0.3 1022552
21:00+8с5119194 0.3 1023479
28 сентября, вт
вт2800:00+8с51092100 0.1 1023432
03:00+8с4893100 0.1 1023495
06:00+8ссв5994100 0.4 1024517
09:00+7св5889100 0.6 1026670
12:00+7всв5782100 0.1 1028878
15:00+7св5685100 0.1 1029872
18:00+7св4885100 0.1 1031680
21:00+6всв5875100 0.1 1033742
29 сентября, ср
ср2900:00+3св34795 0.0 103452
03:00+2ссв34865 0.0 103562
06:00+1ссв34934 0.0 103571
09:00+5св35724 0.0 1036305
12:00+9св45522 0.0 1035976
15:00+11св34460 0.0 10341170
18:00+7св22625 0.0 103421
21:00+5св226854 0.0 103516
30 сентября, чт
чт3000:00+4всв2271100 0.0 103611
03:00+4св1174100 0.0 103610
06:00+3ссв227958 0.0 103610
09:00+7всв22705 0.0 1037219
12:00+11в22575 0.0 1036954
15:00+12в115369 0.0 10351317
18:00+10св1157100 0.0 103512
21:00+9в226392 0.0 103535
1 октября, пт
пт100:00+8ююв226937 0.0 103634
03:00+5ю11795 0.0 103710
06:00+4ю11815 0.0 103710
09:00+8ююв11675 0.0 1037184
12:00+12ю22564 0.0 1037935
15:00+13ююз22521 0.0 10361166
18:00+9юз22660 0.0 103510
21:00+7ююз11710 0.0 103610